TimeCDT,TemperatureF,Dew PointF,Humidity,Sea Level PressureIn,VisibilityMPH,Wind Direction,Wind SpeedMPH,Gust SpeedMPH,PrecipitationIn,Events,Conditions,WindDirDegrees,DateUTC
12:15 AM,35.2,32.5,90,30.42,5.0,North,16.1,28.8,N/A,,Overcast,360,2013-05-02 05:15:00
12:35 AM,35.6,32.5,89,30.43,4.0,North,19.6,26.5,N/A,,Overcast,360,2013-05-02 05:35:00
12:55 AM,35.6,32.5,89,30.44,7.0,North,17.3,20.7,N/A,,Overcast,10,2013-05-02 05:55:00
1:15 AM,35.8,32.2,87,30.44,7.0,North,13.8,25.3,N/A,Snow,Light Snow,360,2013-05-02 06:15:00
1:35 AM,35.8,32.0,86,30.45,7.0,North,12.7,18.4,0.01,Snow,Light Snow,360,2013-05-02 06:35:00
1:55 AM,35.6,32.0,87,30.42,5.0,North,15.0,18.4,0.01,Snow,Light Snow,10,2013-05-02 06:55:00
2:15 AM,36.3,32.0,84,30.46,10.0,North,12.7,19.6,N/A,,Overcast,360,2013-05-02 07:15:00
2:35 AM,37.0,32.0,82,30.46,10.0,North,12.7,21.9,N/A,,Overcast,360,2013-05-02 07:35:00
2:55 AM,37.4,31.3,79,30.43,10.0,North,16.1,21.9,N/A,,Overcast,10,2013-05-02 07:55:00
3:15 AM,37.6,31.1,77,30.42,10.0,North,17.3,20.7,N/A,,Overcast,10,2013-05-02 08:15:00
3:35 AM,37.6,31.1,77,30.46,10.0,North,13.8,19.6,N/A,,Overcast,360,2013-05-02 08:35:00
3:55 AM,37.6,31.1,77,30.46,10.0,North,15.0,19.6,N/A,,Overcast,360,2013-05-02 08:55:00
4:15 AM,37.9,31.3,77,30.49,10.0,North,13.8,24.2,N/A,,Overcast,360,2013-05-02 09:15:00
4:35 AM,38.1,30.9,75,30.49,10.0,North,15.0,19.6,N/A,,Overcast,360,2013-05-02 09:35:00
4:55 AM,38.3,30.9,75,30.49,10.0,North,13.8,21.9,N/A,,Overcast,360,2013-05-02 09:55:00
5:15 AM,38.3,30.7,74,30.49,10.0,North,17.3,23.0,N/A,,Overcast,10,2013-05-02 10:15:00
5:35 AM,38.3,30.6,74,30.49,10.0,North,16.1,24.2,N/A,,Overcast,10,2013-05-02 10:35:00
5:55 AM,37.9,30.7,75,30.49,10.0,North,15.0,24.2,N/A,,Overcast,360,2013-05-02 10:55:00
6:15 AM,37.9,30.2,74,30.51,10.0,North,13.8,20.7,N/A,,Overcast,360,2013-05-02 11:15:00
6:35 AM,37.9,30.0,73,30.51,10.0,North,17.3,23.0,N/A,,Overcast,360,2013-05-02 11:35:00
6:55 AM,37.9,29.5,72,30.52,10.0,North,12.7,24.2,N/A,,Overcast,10,2013-05-02 11:55:00
7:15 AM,38.5,28.4,67,30.53,10.0,North,17.3,24.2,N/A,,Overcast,360,2013-05-02 12:15:00
7:35 AM,38.7,28.9,68,30.53,10.0,North,15.0,21.9,N/A,,Overcast,360,2013-05-02 12:35:00
7:55 AM,38.5,29.8,71,30.55,10.0,North,17.3,20.7,N/A,,Overcast,360,2013-05-02 12:55:00
8:15 AM,38.7,30.7,73,30.55,10.0,North,16.1,-,N/A,,Overcast,350,2013-05-02 13:15:00
8:35 AM,39.2,30.6,71,30.56,10.0,North,16.1,24.2,N/A,,Overcast,350,2013-05-02 13:35:00
8:55 AM,39.7,30.0,68,30.56,10.0,North,16.1,21.9,N/A,,Overcast,350,2013-05-02 13:55:00
9:15 AM,40.1,29.7,66,30.55,10.0,North,20.7,27.6,N/A,,Overcast,360,2013-05-02 14:15:00
9:35 AM,40.1,29.7,66,30.54,10.0,North,20.7,27.6,N/A,,Overcast,360,2013-05-02 14:35:00
9:55 AM,41.0,29.5,64,30.54,10.0,North,13.8,25.3,N/A,,Overcast,10,2013-05-02 14:55:00
10:15 AM,41.4,28.0,59,30.54,10.0,NNE,17.3,27.6,N/A,,Overcast,20,2013-05-02 15:15:00
10:35 AM,42.1,28.4,58,30.54,10.0,North,19.6,26.5,N/A,,Overcast,10,2013-05-02 15:35:00
10:55 AM,42.8,28.4,57,30.55,10.0,North,18.4,29.9,N/A,,Overcast,350,2013-05-02 15:55:00
11:15 AM,43.0,27.7,55,30.55,10.0,North,19.6,31.1,N/A,,Overcast,360,2013-05-02 16:15:00
11:35 AM,43.7,26.2,50,30.55,10.0,NNE,21.9,31.1,N/A,,Overcast,20,2013-05-02 16:35:00
11:55 AM,44.6,27.5,51,30.56,10.0,North,23.0,27.6,N/A,,Mostly Cloudy,10,2013-05-02 16:55:00
12:15 PM,46.0,27.3,48,30.56,10.0,North,21.9,31.1,N/A,,Mostly Cloudy,360,2013-05-02 17:15:00
12:35 PM,47.1,27.1,46,30.54,10.0,North,25.3,29.9,N/A,,Mostly Cloudy,360,2013-05-02 17:35:00
12:55 PM,47.8,26.8,44,30.54,10.0,North,21.9,31.1,N/A,,Scattered Clouds,360,2013-05-02 17:55:00
1:15 PM,47.8,25.0,41,30.53,10.0,North,28.8,36.8,N/A,,Clear,10,2013-05-02 18:15:00
1:35 PM,48.7,24.8,39,30.53,10.0,North,24.2,35.7,N/A,,Clear,10,2013-05-02 18:35:00
1:55 PM,50.0,27.1,41,30.52,10.0,North,20.7,34.5,N/A,,Clear,350,2013-05-02 18:55:00
2:15 PM,50.0,27.0,41,30.52,10.0,North,20.7,33.4,N/A,,Scattered Clouds,10,2013-05-02 19:15:00
2:35 PM,50.5,26.2,39,30.51,10.0,North,25.3,33.4,N/A,,Scattered Clouds,360,2013-05-02 19:35:00
2:55 PM,51.1,27.5,40,30.51,10.0,North,24.2,32.2,N/A,,Scattered Clouds,10,2013-05-02 19:55:00
3:15 PM,51.8,26.8,38,30.50,10.0,North,26.5,32.2,N/A,,Clear,360,2013-05-02 20:15:00
3:35 PM,52.0,26.8,38,30.49,10.0,North,23.0,34.5,N/A,,Scattered Clouds,10,2013-05-02 20:35:00
3:55 PM,51.6,25.5,36,30.49,10.0,North,24.2,34.5,N/A,,Scattered Clouds,10,2013-05-02 20:55:00
4:15 PM,52.7,27.9,38,30.48,10.0,North,19.6,32.2,N/A,,Scattered Clouds,10,2013-05-02 21:15:00
4:35 PM,52.7,27.5,38,30.48,10.0,North,21.9,34.5,N/A,,Mostly Cloudy,10,2013-05-02 21:35:00
4:55 PM,53.1,27.3,37,30.47,10.0,North,24.2,31.1,N/A,,Mostly Cloudy,350,2013-05-02 21:55:00
5:15 PM,52.3,27.9,39,30.47,10.0,NNE,20.7,27.6,N/A,,Mostly Cloudy,20,2013-05-02 22:15:00
5:35 PM,52.7,27.5,38,30.46,10.0,NNE,18.4,26.5,N/A,,Mostly Cloudy,20,2013-05-02 22:35:00
5:55 PM,51.6,27.5,39,30.46,10.0,NNE,19.6,25.3,N/A,,Scattered Clouds,20,2013-05-02 22:55:00
6:15 PM,52.5,26.1,36,30.46,10.0,North,20.7,27.6,N/A,,Scattered Clouds,360,2013-05-02 23:15:00
6:35 PM,52.7,26.6,36,30.46,10.0,NNE,17.3,28.8,N/A,,Scattered Clouds,20,2013-05-02 23:35:00
6:55 PM,50.9,26.8,39,30.45,10.0,North,16.1,26.5,N/A,,Scattered Clouds,10,2013-05-02 23:55:00
7:15 PM,51.1,28.4,42,30.45,10.0,North,12.7,19.6,N/A,,Scattered Clouds,10,2013-05-03 00:15:00
7:35 PM,51.1,26.6,39,30.45,10.0,North,16.1,26.5,N/A,,Scattered Clouds,360,2013-05-03 00:35:00
7:55 PM,50.0,27.5,42,30.45,10.0,NNE,12.7,-,N/A,,Clear,20,2013-05-03 00:55:00
8:15 PM,49.1,27.9,44,30.44,10.0,NNE,9.2,-,N/A,,Clear,20,2013-05-03 01:15:00
8:35 PM,47.5,28.9,49,30.44,10.0,NNE,8.1,-,N/A,,Clear,20,2013-05-03 01:35:00
8:55 PM,47.3,29.1,49,30.44,10.0,North,8.1,-,N/A,,Clear,360,2013-05-03 01:55:00
9:15 PM,46.2,29.3,52,30.44,10.0,North,6.9,-,N/A,,Clear,10,2013-05-03 02:15:00
9:35 PM,45.5,29.3,53,30.43,10.0,North,8.1,-,N/A,,Clear,10,2013-05-03 02:35:00
9:55 PM,44.1,29.5,57,30.44,10.0,North,5.8,-,N/A,,Clear,360,2013-05-03 02:55:00
10:15 PM,41.2,30.6,66,30.43,10.0,NNW,4.6,-,N/A,,Clear,330,2013-05-03 03:15:00
10:35 PM,40.1,30.7,69,30.42,10.0,NNW,4.6,-,N/A,,Clear,330,2013-05-03 03:35:00
10:55 PM,39.7,30.4,69,30.42,10.0,NNW,4.6,-,N/A,,Clear,330,2013-05-03 03:55:00
11:15 PM,39.2,30.2,70,30.42,10.0,NW,5.8,-,N/A,,Clear,320,2013-05-03 04:15:00
11:35 PM,37.9,30.2,74,30.41,10.0,NW,4.6,-,N/A,,Clear,320,2013-05-03 04:35:00
11:55 PM,37.0,30.0,76,30.41,10.0,NW,6.9,-,N/A,,Clear,310,2013-05-03 04:55:00